COSMOS 2376 (GLONASS)

Satellite information

Favourite Embed

Satellite Type and Status

PAYLOADIN ORBIT

Key statistics

Satellite COSMOS 2376 (GLONASS) at a glance.

Uptime

9192

Days in orbit

Revolutions

≈ 2.1

Per day

Orbit

MEO

Medium Earth Orbit

Inclination

65.3

Latest

Satellite identification and parameters

Extended collection of information and parameters for COSMOS 2376 (GLONASS).

Object identification

Identified? True

Debris? False

Object name: COSMOS 2376 (GLONASS)

International designator: 2000-063B

Object number (NORAD): 26565

Object ID (CCSDS): 26565

Country: COMMONWEALTH OF INDEPENDENT STATES (CIS)

Current information (Y/N): Y

RCS size: LARGE

Orbital parameters

Period: 675.731 minutes

Inclination: 65.3158 deg

SMA: 25507.98 km

Apoapsis: 19140.573 km

Periapsis: 19119.117 km

RAAN: 320.2715 deg

Eccentricy: 0.00042057

Argument of periapsis: 5.3894 deg

Mean anomaly: 352.12 deg

Mean motion: 2.13102557 rev/day

Mean motion (dot): -0.00000052 rev/day2

B* drag term: 0.0 1/REarth

Two-line elements (TLE)

Creation date: Dec. 11, 2025, 10:54 a.m.

Reference frame: TEME

Reference center: EARTH

Epoch: Dec. 11, 2025, 12:54 a.m. UTC

TLE line 0: 0 COSMOS 2376 (GLONASS)

TLE line 1: 1 26565U 00063B 25345.03814485 -.00000052 00000-0 00000-0 0 9993

TLE line 2: 2 26565 65.3158 320.2715 0004206 5.3894 352.1200 2.13102557195807

Live tracking on map

Real-time ground track for satellite COSMOS 2376 (GLONASS).

In-orbit conjunctions

There are no conjunctions computed for COSMOS 2376 (GLONASS), at the moment. Check back to stay up to date, as we update our databases every day.

Go to all conjunctions

Associated space launch

GLONASS navigation satellites

COSMOS 2376 (GLONASS) was lifted into orbit during the mission ‘Proton | Uragan 75 to 77’, on board a Proton space rocket.

The launch took place on Oct. 13, 2000, 2:12 p.m. from 81/24 (81P).

For more information about the launch, click the button.

Launch to space Proton | Uragan 75 to 77
Proton | Uragan 75 to 77

Agency: N/A

Status: Launch Successful

Launch date: Oct. 13, 2000, 2:12 p.m. UTC

Rocket: Proton

Launch pad: 81/24 (81P)

Location: Baikonur Cosmodrome, Republic of Kazakhstan

...

Latest news about this satellite

There are no fresh news available about this satellite. Check back as we update our databases every day.


Newsletter sign-up

Weekly statistics, charts and insights to help you stay on top of the space industry.